Location: Downe
(51.3167°N, 0.0500°E)
Time: 03:08:54
(UTC+00:00)

SJ 16-02 - Pass Details

Date: 17 November 2019
Orbit: 606 x 616 km, 75.0° (Epoch: 11 December)

Event Time Altitude Azimuth Distance (km) Brightness Sun altitude
Exits shadow 03:37:51 16° 115° (ESE) 1,605 3.9 -34.3°
Maximum altitude 03:38:59 17° 96° (E) 1,533 4.0 -34.1°
Drops below altitude 10° 03:41:52 10° 55° (NE) 1,967 4.6 -33.7°
Sets 03:44:43 0° 36° (NE) 2,877 5.4 -33.3°
